Regional Weather Roundup
Issued by NWS Cleveland, OH

Home | Current Version | Previous Version | Text Only | Print | Product List | Glossary On
Versions: 1 2 3 4 5 6 7 8 9 10 11 12 13 14 15 16 17 18 19 20 21 22 23 24 25 26 27 28 29 30 31 32 33 34 35 36 37 38 39 40 41 42 43 44 45 46 47 48 49 50
000
ASUS41 KCLE 250112
RWRCLE
OHIO REGIONAL WEATHER ROUNDUP
NATIONAL WEATHER SERVICE WILMINGTON, OH
900 PM EDT TUE MAY 24 2016

NOTE: "FAIR" INDICATES FEW OR NO CLOUDS BELOW 12,000 FEET WITH NO
SIGNIFICANT WEATHER AND/OR OBSTRUCTIONS TO VISIBILITY.

OHZ001>008-015>018-024>027-034-035-043-044-250200-
   NORTHWEST OHIO

CITY           SKY/WX    TMP DP  RH WIND       PRES   REMARKS
DEFIANCE       FAIR      75  45  34 S5        30.02S
FINDLAY        FAIR      75  38  26 SW3       30.03S
TOLEDO EXPRESS FAIR      71  50  47 CALM      30.01S
TOLEDO EXEC    FAIR      75  45  34 S6        30.02S
LIMA           FAIR      75  43  31 SW5       30.05R
$$

OHZ009>014-019>023-028>033-038-089-250200-
   NORTHEAST OHIO

CITY           SKY/WX    TMP DP  RH WIND       PRES   REMARKS
CLE-HOPKINS    FAIR      77  38  24 CALM      30.06R
CLE-LAKEFRONT  FAIR      76  37  24 SW5       30.03R
CUY CO. ARPT   CLEAR     73  43  33 SW7       30.05R
LORAIN-ELYRIA  FAIR      74  40  29 SW3       30.04S
ASHTABULA      FAIR      64  42  44 CALM      30.05S
AKRON-CANTON   FAIR      72  46  39 CALM      30.07R
WOOSTER        FAIR      71  48  43 SW5       30.07R
MANSFIELD      FAIR      71  45  39 S5        30.07S
YOUNGSTOWN     MOCLDY    66  47  50 CALM      30.06R
$$

OHZ042-051>053-060>062-070>072-077>081-250200-
  SOUTHWEST OHIO

CITY           SKY/WX    TMP DP  RH WIND       PRES   REMARKS
CINC-COVINGTON FAIR      71  51  49 S3        30.08S
CINC-LUNKEN    FAIR      66  57  72 S5        30.07S
HAMILTON       FAIR      67  54  63 CALM      30.07S
DAYTON         FAIR      73  45  36 S6        30.08S
WRIGHT-PAT AFB FAIR      71  48  44 S3        30.06S
DAYTON GENERAL FAIR      73  43  33 S5        30.07S
WILMINGTON     FAIR      69  49  48 SW5       30.08S
$$

OHZ036-037-039>041-045>050-054>059-063>069-073>076-082>088-250200-
  CENTRAL AND SOUTHEAST OHIO

CITY           SKY/WX    TMP DP  RH WIND       PRES   REMARKS
COLUMBUS       FAIR      75  46  35 SW5       30.06S
OSU AIRPORT    FAIR      74  47  38 SW5       30.06S
BOLTON FIELD   FAIR      71  51  50 SW5       30.08R
RICKENBACK AFB FAIR      71  51  49 SW5       30.06S
NEWARK         FAIR      75  49  39 SW3       30.07R
MARION         FAIR      73  43  33 SW6       30.06S
LANCASTER      FAIR      70  50  49 S3        30.08S
ZANESVILLE     FAIR      74  50  42 SW3       30.08R
NEW PHILLY     FAIR      72  52  49 CALM      30.08R
$$




USA.gov is the U.S. government's official web portal to all federal, state and local government web resources and services.